DELTA 1 DEB, 7042

Orbit data source: Space-Track

DELTA 1 DEB, 7042 is space debris in SSO originally from a launch on Tue, 06 Nov 1973 UTC launched from the Air Force Western Test Range (AFWTR). Debris objects in space refer to the collection of defunct objects orbiting the Earth. Examples of debris include non-operational satellites, rocket bodies, and fragments generated from explosions, collisions, or faulty payload assembly.

Loading next visibility...
Identifier
7042, 1973-086AJ
Orbit
SSO
Country
Flag of USUS
Related business
Manufacturer
Unknown
Mission
Spacecraft
Bus & Motor
Unknown
Mass
Unknown
Launch date (UTC)
1973-11-06 (52 years ago)
Launch vehicle
Unknown
Launch site
Air Force Western Test Range (AFWTR)
Object type
Payload
Rocket body
Debris
Shape & HBR
Unknown
Radar Cross Section
Small (<0.1 m²)

Expand to show TLE details & history
Last TLE update: 9 hours ago

TLE from 9 hours ago
0 DELTA 1 DEB
1 07042U 73086AJ  25259.51450766  .00000637  00000-0  83139-3 0  9997
2 07042 101.7491  96.3625 0318378 342.9115  16.1484 13.47819771525367
Epoch: 2025-09-16T12:20Z
TLE epoch observation values (Epoch: 2025-09-16T12:20:53.461Z)
Latitude
-0.00008°
Longitude
-84.56395°
Altitude
855.483 km
Speed
7.537 km/s
True Right ascension
06h 25m 27s
True Declination
0° 00' 00"
Sunlit
Object was in daylight at epoch
Visualization orbit readout
Latitude
Unknown
Longitude
Unknown
Altitude
Unknown
Speed
Unknown
Apparent Right ascension
Unknown
Apparent Declination
Unknown
Sunlit
N/A
Visualization observer readout
Local Sidereal Time
14:29:05
Azimuth
Unknown
Elevation
Unknown
Doppler factor
Unknown
Orbital elements
Apogee altitude
1,315.085 km
Perigee altitude
840.329 km
Semi-major axis
7,455.844 km
Eccentricity
0.03184
Inclination
101.7491°
RAAN
96.3625°
Arg. of periapsis
342.9115°
True anomaly
17.2033°
Mean anomaly
16.1484°
Eccentric anomaly
16.67173°
Mean motion
3.3713 °/min
Orbital period
106.78 mins
BSTAR
0.00083139
Loading maneuver chart data...
Computing Atmospheric mass density...
Loading historical data...
Loading historical data...
Loading historical data...
Loading historical data...
Loading historical data...
Loading historical data...
Loading historical data...

Documentation

Showing up to 5 results
|